Showing default

POPSAT HIP 1, 40028

Orbit data source: Space-Track

POPSAT HIP 1, 40028 is a payload satellite owned by MicroSpace Rapid (SG) in SSO that was launched on Thu, 19 Jun 2014 UTC via a DNEPR launch vehicle from the Orenburg, Russia (OREN). Payload-class satellites include a variety of spacecraft equipped with specific instruments for various scientific and technological missions. These include communications satellites like Starlink; space stations such as the ISS; scientific satellites like the Hubble; Earth observation satellites from companies like Planet Labs, Umbra, and HawkEye 360; GPS; miniature CubeSats for education and research; and military/defense satellites.

Loading next visibility...
Identifier
40028, 2014-033U
Orbit
SSO
Country
Flag of UnknownUnknown / SING
Related business
Manufacturer
MicroSpace Rapid
Mission
Non-operational Commercial Imaging
Bus & Motor
CUBESAT 3U, Unknown motor
Mass
~4 kg wet, ~4 kg dry
Launch date (UTC)
2014-06-19 (11 years ago)
Launch vehicle
DNEPR
Launch site
Orenburg, Russia (OREN)
Object type
Payload
Rocket body
Debris
Shape & HBR
Box, 0.1 m
Radar Cross Section
0.075 m², Medium (>0.1 m² and < 1m²)

Expand to show TLE details & history
Last TLE update: 6 hours ago

TLE from 6 hours ago
0 POPSAT HIP 1
1 40028U 14033U   25343.62933133  .00008804  00000-0  51679-3 0  9993
2 40028  98.0982 337.5620 0008741 111.7707 248.4452 15.11961755624127
Epoch: 2025-12-09T15:06Z
TLE epoch observation values (Epoch: 2025-12-09T15:06:14.226Z)
Latitude
-0.00012°
Longitude
32.39147°
Altitude
535.5 km
Speed
7.594 km/s
True Right ascension
22h 30m 14s
True Declination
0° 00' 00"
Sunlit
Object was in daylight at epoch
Visualization orbit readout
Latitude
Unknown
Longitude
Unknown
Altitude
Unknown
Speed
Unknown
Apparent Right ascension
Unknown
Apparent Declination
Unknown
Sunlit
N/A
Visualization observer readout
Local Sidereal Time
19:11:27
Azimuth
Unknown
Elevation
Unknown
Doppler factor
Unknown
Orbital elements
Apogee altitude
533.261 km
Perigee altitude
521.189 km
Semi-major axis
6,905.362 km
Eccentricity
0.00087
Inclination
98.0982°
RAAN
337.562°
Arg. of periapsis
111.7707°
True anomaly
248.35208°
Mean anomaly
248.4452°
Eccentric anomaly
248.39864°
Mean motion
3.78237 °/min
Orbital period
95.18 mins
BSTAR
0.00051679
Loading maneuver chart data...
Computing Atmospheric mass density...
Loading historical data...
Loading historical data...
Loading historical data...
Loading historical data...
Loading historical data...
Loading historical data...
Loading historical data...

Documentation

Showing up to 5 results
|